Vorticity
nan nan nan nan nan nan nan nan nan nan nan nan nan nan nan nan nan nan nan nan nan nan nan nan nan nan nan nan nan nan nan nan nan nan nan nan nan nan nan nan nan nan nan nan nan nan nan nan nan
nan 11 10 7 5 5 7 10 13 7 11 3 1 1 -3 5 13 9 11 8 6 5 5 7 7 6 6 5 6 5 5 4 4 4 5 5 5 5 6 6 6 6 6 5 5 4 3 3 nan
nan 8 4 10 5 2 5 9 12 6 13 6 -3 -1 3 2 3 13 15 7 4 5 7 8 6 6 6 5 6 6 5 4 4 5 5 5 5 5 5 6 6 6 6 5 5 4 3 4 nan
nan 6 7 8 6 5 5 9 7 10 10 15 10 1 8 14 19 18 7 3 4 6 8 7 5 6 6 6 5 6 6 5 5 5 5 5 4 5 5 5 5 6 7 7 5 4 4 4 nan
nan 7 9 7 7 6 8 8 10 10 11 11 11 9 7 12 17 9 5 3 5 6 7 7 7 5 6 6 6 6 5 5 5 5 5 5 5 5 5 5 5 5 6 6 5 5 5 4 nan
nan 8 3 10 7 7 4 6 10 5 13 9 6 9 4 6 3 5 7 7 7 6 6 9 8 4 4 6 6 5 6 6 5 5 5 5 5 5 5 5 5 6 5 5 6 5 4 3 nan
nan 6 7 1 3 8 6 9 4 3 4 9 4 3 7 6 7 8 8 6 7 5 5 6 6 6 7 5 5 6 6 5 6 6 5 5 5 5 5 6 6 5 5 5 5 4 4 3 nan
nan 4 8 11 11 3 5 12 4 -0 8 13 7 7 10 8 9 7 7 7 6 5 6 6 6 5 5 8 8 6 6 6 5 5 6 7 6 5 6 5 5 5 5 5 5 4 4 3 nan
nan 7 9 10 8 6 12 10 4 5 7 9 14 12 11 8 5 6 3 4 4 7 6 6 6 6 6 7 7 8 7 5 5 5 5 4 6 7 7 6 7 5 5 6 5 4 3 3 nan
nan 6 6 5 8 9 6 10 5 6 3 4 8 11 12 7 7 4 3 3 5 7 5 5 7 7 6 6 6 5 4 6 7 6 6 5 7 8 7 9 9 6 5 7 7 7 5 4 nan
nan 10 5 4 12 8 2 3 10 5 4 7 8 12 13 13 12 12 16 15 5 4 5 7 5 6 4 6 5 5 8 7 7 7 7 6 7 7 7 8 8 10 8 7 8 8 8 7 nan
nan 8 10 6 8 9 10 4 7 6 8 9 9 10 9 12 12 13 10 21 27 12 5 6 6 5 3 6 8 7 6 6 8 9 6 6 7 8 7 7 8 6 9 7 7 7 7 7 nan
nan 7 7 7 6 10 11 8 7 5 11 9 8 6 6 8 7 9 9 6 13 21 22 10 5 5 5 4 7 7 7 7 7 8 7 6 6 7 9 8 8 6 7 7 7 7 7 7 nan
nan 8 7 4 5 9 7 5 5 8 15 8 5 5 6 6 7 7 7 8 7 11 17 22 18 6 5 4 7 7 8 8 7 8 9 6 5 7 7 7 8 8 7 7 7 7 8 8 nan
nan 3 4 6 11 4 -2 4 8 14 10 5 4 4 4 4 7 8 7 7 9 8 9 11 16 21 17 9 5 7 9 8 8 7 11 8 5 6 6 8 8 8 9 7 8 6 7 8 nan
nan 3 7 7 4 7 9 4 7 14 6 4 4 4 3 4 6 6 8 7 8 8 8 10 9 13 12 15 17 12 7 9 9 8 9 9 8 5 6 6 7 8 10 8 8 9 8 8 nan
nan 9 6 11 6 11 11 8 10 9 5 5 4 5 6 4 4 7 8 7 7 8 7 9 9 9 9 11 11 10 11 13 14 13 10 9 10 8 6 5 7 8 6 9 8 8 9 9 nan
nan 6 9 10 8 13 9 8 9 6 4 5 5 5 6 6 4 4 7 7 5 6 8 8 7 7 11 12 9 8 8 8 9 10 13 17 17 10 5 7 7 7 6 7 8 8 8 8 nan
nan 4 11 15 18 10 5 8 5 4 3 7 8 8 6 5 5 4 5 6 7 6 5 6 8 10 10 9 13 10 5 8 7 5 6 13 13 21 21 8 5 7 7 6 7 9 7 6 nan
nan 15 12 18 14 4 7 3 7 8 9 9 7 8 7 6 5 6 6 6 6 8 7 6 7 9 12 10 12 10 7 9 7 7 6 6 9 12 14 21 21 11 5 6 6 6 7 8 nan
nan 15 12 5 1 3 1 3 7 6 7 7 7 8 8 8 7 5 5 7 6 5 6 6 6 7 8 11 11 12 12 7 4 6 8 5 7 9 10 12 13 17 22 17 6 7 6 4 nan
nan 13 10 2 4 0 -6 10 9 8 5 5 6 7 8 7 7 7 6 5 7 6 8 7 6 6 7 9 10 11 12 8 7 7 6 6 6 5 7 9 10 12 11 13 20 16 6 8 nan
nan 17 9 0 -3 7 3 6 14 9 6 6 7 7 8 8 8 7 7 7 5 8 8 8 7 7 7 7 9 8 9 10 9 6 7 8 6 6 7 6 7 9 9 6 10 15 20 11 nan
nan 8 10 12 4 10 14 4 12 9 8 6 7 7 7 7 8 8 8 6 6 7 8 9 9 7 8 8 7 8 7 9 9 8 10 9 9 6 5 7 10 8 6 7 9 9 17 20 nan
nan 6 6 8 11 14 14 9 12 20 13 9 5 5 6 7 7 7 9 8 7 7 7 8 7 8 8 9 7 7 8 7 7 9 8 8 8 7 6 8 11 11 7 7 7 9 11 15 nan
nan 3 9 9 9 11 12 11 15 17 12 10 7 7 5 6 8 8 7 9 9 7 7 8 9 8 7 8 8 8 9 10 7 7 7 8 7 5 6 8 7 7 10 12 10 9 6 9 nan
nan 5 6 7 10 10 9 5 16 11 7 8 6 6 7 7 8 8 7 8 8 8 7 8 8 8 7 8 9 8 7 8 8 9 9 7 5 5 7 8 8 8 10 8 11 11 9 8 nan
nan 12 8 11 13 8 10 8 12 8 5 5 5 5 7 9 9 8 8 7 8 8 8 8 9 8 7 9 10 8 8 9 9 9 8 9 8 6 6 7 8 8 9 8 10 12 9 8 nan
nan 9 10 12 8 10 8 13 22 13 6 4 6 8 7 9 9 9 9 8 8 7 8 8 8 8 9 10 10 9 9 8 9 9 10 10 9 8 7 7 7 6 8 10 9 8 8 8 nan
nan nan nan nan nan nan nan nan nan nan nan nan nan nan nan nan nan nan nan nan nan nan nan nan nan nan nan nan nan nan nan nan nan nan nan nan nan nan nan nan nan nan nan nan nan nan nan nan nan
CAPE
0 0 0 0 0 0 0 0 3 5 0 0 29 32 29 4 0 0 0 0 222 585 889 1307 1326 1366 1373 1457 1508 1653 1852 1895 1928 2040 2123 2220 2297 2258 2101 1963 1939 1858 1817 1049 1283 949 733 274 244
0 0 0 0 0 0 0 0 0 16 4 2 22 51 47 20 8 0 0 11 191 548 737 1097 1214 1231 1294 1354 1495 1626 1847 1807 1830 1882 1983 2052 2109 2100 1908 1575 1574 1728 1553 945 1054 603 732 499 451
0 0 0 0 0 0 0 0 3 0 4 14 61 0 43 63 5 0 0 1 14 447 742 987 1079 1138 1218 1312 1397 1500 1598 1564 1605 1657 1811 1901 1973 1971 1802 1493 1433 1655 1460 955 870 515 783 535 256
0 0 0 0 0 0 0 0 0 15 131 208 132 49 17 0 0 0 0 0 0 510 616 652 958 1081 1199 1312 1360 1323 1263 1206 1301 1445 1622 1760 1803 1700 1495 1439 1504 1596 1438 1082 792 761 603 309 117
0 0 0 0 0 0 0 0 0 0 271 208 18 4 11 0 0 0 0 0 399 390 498 531 627 1000 1189 1365 1336 1136 1024 1030 1150 1279 1360 1488 1584 1403 1150 1205 1355 1260 1378 1317 993 750 423 217 66
0 0 0 0 0 0 0 0 0 0 0 281 102 14 1 0 0 0 0 331 304 377 471 539 556 681 1137 1161 1055 892 820 870 945 1029 1160 1315 1140 1006 1041 1036 1095 1043 950 837 567 311 167 73 1
0 0 0 0 0 0 0 0 0 0 0 70 178 1 0 32 5 0 246 268 160 306 429 590 694 878 935 879 781 675 617 675 743 759 885 958 799 667 904 1016 962 880 697 562 230 115 44 12 0
0 0 0 0 0 0 0 0 0 0 0 0 0 431 218 0 121 132 420 278 103 111 299 416 570 633 471 456 578 544 503 495 507 499 546 537 557 564 630 718 784 680 575 438 117 48 35 28 0
0 0 0 0 0 0 0 0 0 0 0 0 38 353 234 0 56 221 505 396 145 137 145 227 465 572 464 300 415 402 425 393 386 386 340 110 92 278 434 353 464 451 309 263 63 0 30 7 0
0 0 0 0 0 0 0 0 0 0 0 0 0 45 338 38 26 209 337 616 350 211 151 187 176 296 472 615 197 132 246 124 124 162 88 5 0 6 200 124 165 239 113 45 19 0 0 0 0
0 0 0 0 0 0 0 0 0 0 0 0 0 0 0 34 30 7 108 522 656 434 262 227 134 182 214 137 100 136 95 84 77 13 5 0 0 0 0 0 25 10 13 0 0 0 0 0 0
0 0 0 0 0 0 0 0 0 0 0 0 0 0 0 0 0 0 0 0 460 758 610 378 224 194 196 112 77 74 119 69 57 58 4 0 0 0 0 0 0 0 0 0 0 0 0 0 0
0 0 0 0 0 0 0 0 0 0 0 0 0 0 0 0 0 0 0 0 0 0 691 571 572 313 260 291 210 36 19 96 62 58 85 34 0 0 0 0 0 0 0 0 0 0 0 0 0
0 0 0 0 0 0 0 0 0 0 0 0 0 0 0 0 0 0 0 0 0 0 0 214 649 605 397 390 531 134 32 54 3 39 84 158 24 7 0 0 0 0 0 0 0 0 0 0 0
0 0 0 0 0 0 0 0 0 0 0 0 0 0 0 0 0 0 0 0 0 0 0 0 3 562 695 487 427 769 551 140 22 13 37 240 110 28 64 4 0 0 0 0 0 0 0 0 0
0 0 0 0 0 0 0 0 0 0 0 0 0 0 0 0 0 0 0 0 0 0 0 0 0 0 0 12 703 707 534 547 215 57 17 187 186 92 51 110 43 0 0 0 0 0 0 0 0
0 0 0 0 0 0 0 0 0 0 0 0 0 0 0 0 0 0 0 0 0 0 0 0 0 0 0 0 0 0 299 486 591 162 186 25 244 142 40 11 44 3 0 0 0 0 0 0 0
0 0 0 0 0 0 0 0 0 0 0 0 0 0 0 0 0 0 0 0 0 0 0 0 0 0 0 0 0 0 0 0 5 52 31 120 190 160 172 56 9 27 0 0 0 0 0 0 0
0 0 0 0 0 0 0 0 0 0 0 0 0 0 0 0 0 0 0 0 0 0 0 0 0 0 0 0 0 0 0 0 0 0 0 0 0 22 110 132 62 47 61 28 0 0 0 0 0
0 0 0 0 0 0 0 0 0 0 0 0 0 0 0 0 0 0 0 0 0 0 0 0 0 0 0 0 0 0 0 0 0 0 0 0 0 0 0 3 102 90 83 21 5 0 0 0 0
0 0 0 0 0 0 0 0 0 0 0 0 0 0 0 0 0 0 0 0 0 0 0 0 0 0 0 0 0 0 0 0 0 0 0 0 0 0 0 0 0 0 77 101 33 7 0 12 0
0 0 0 0 0 0 0 0 0 0 0 0 0 0 0 0 0 0 0 0 0 0 0 0 0 0 0 0 0 0 0 0 0 0 0 0 0 0 0 0 0 0 0 1 19 38 12 0 2
0 0 0 0 0 0 0 0 0 0 0 0 0 0 0 0 0 0 0 0 0 0 0 0 0 0 0 0 0 0 0 0 0 0 0 0 0 0 0 0 0 0 1 2 3 5 39 24 6
0 0 0 0 0 0 0 0 0 0 0 0 0 0 0 0 0 0 0 0 0 0 0 0 0 0 0 0 0 0 0 0 0 0 0 0 0 0 0 0 0 1 4 4 6 9 4 51 56
0 0 0 0 0 0 0 0 0 0 0 0 0 0 0 0 0 0 0 0 0 0 0 0 0 0 0 0 0 0 0 0 0 0 0 0 0 0 0 0 0 0 0 0 1 7 11 8 9
0 0 0 0 0 0 0 0 0 0 0 0 0 0 0 0 0 0 0 0 0 0 0 0 0 0 0 0 0 0 0 0 0 0 0 0 0 0 0 0 0 0 0 0 3 7 13 12 10
0 0 0 0 0 0 0 0 0 0 0 0 0 0 0 0 0 0 0 0 0 0 0 0 0 0 0 0 0 0 0 0 0 0 0 0 0 0 0 0 0 0 0 0 2 12 4 0 5
0 0 0 0 0 0 0 0 0 0 0 0 0 0 0 0 0 0 0 0 0 0 0 0 0 0 0 0 0 0 0 0 0 0 0 0 0 0 0 0 0 0 0 0 0 0 15 9 0
0 0 0 0 0 0 0 0 0 0 0 0 0 0 0 0 0 0 0 0 0 0 0 0 0 0 0 0 0 0 0 0 0 0 0 0 0 0 0 0 0 0 0 0 0 0 7 4 7
0 0 0 0 0 0 0 0 0 0 0 0 0 0 0 0 0 0 0 0 0 0 0 0 0 0 0 0 0 0 0 0 0 0 0 0 0 0 0 0 0 0 0 0 0 3 6 7 5